Location: Downe
(51.3167°N, 0.0500°E)
Time: 21:29:34
(UTC+00:00)

Cosmos 1400 Rocket - Pass Details

Date: 17 November 2019
Orbit: 522 x 568 km, 81.2° (Epoch: 08 December)

Event Time Altitude Azimuth Distance (km) Brightness Sun altitude
Rises 05:44:07 0° 348° (NNW) 2,771 6.2 -14.7°
Reaches altitude 10° 05:46:20 10° 351° (N) 1,864 5.3 -14.4°
Maximum altitude 05:50:27 71° 76° (ENE) 594 3.1 -13.8°
Drops below altitude 10° 05:54:28 10° 161° (SSE) 1,823 5.9 -13.2°
Sets 05:56:37 0° 163° (SSE) 2,704 6.8 -12.8°
